When you browse on this site, cookies collect data to enhance your experience and personalize the content and advertising you see.
Visit our Privacy Policy to learn more. By continuing to use the site, you agree to this use of cookies and data.
EN

Hourly Weather Pivni

Today, 14 July, Tuesday

Time Temperature Precipitation Wind Pressure Humidity
00:00 +12°C° 0 mm 4 mps 743 mmHg 87%
01:00 +12°C° 0 mm 4 mps 743 mmHg 87%
02:00 +12°C° 0 mm 4 mps 743 mmHg 88%
03:00 +10°C° 0 mm 5 mps 743 mmHg 90%
04:00 +10°C° 0 mm 5 mps 742 mmHg 91%
05:00 +10°C° 0 mm 5 mps 742 mmHg 93%
06:00 +12°C° 0 mm 5 mps 742 mmHg 87%
07:00 +14°C° 0 mm 6 mps 742 mmHg 81%
08:00 +16°C° 0 mm 6 mps 742 mmHg 74%
09:00 +17°C° 0 mm 7 mps 742 mmHg 70%
10:00 +18°C° 0 mm 7 mps 742 mmHg 66%
11:00 +20°C° 0 mm 7 mps 742 mmHg 61%
12:00 +20°C° 0.3 mm 7 mps 742 mmHg 61%
13:00 +20°C° 0.3 mm 6 mps 742 mmHg 61%
14:00 +20°C° 0.3 mm 6 mps 742 mmHg 61%
15:00 +20°C° 0.1 mm 6 mps 741 mmHg 62%
16:00 +20°C° 0.1 mm 5 mps 741 mmHg 63%
17:00 +20°C° 0.1 mm 5 mps 741 mmHg 65%
18:00 +18°C° 0.1 mm 4 mps 741 mmHg 71%
19:00 +16°C° 0.1 mm 2 mps 741 mmHg 77%
20:00 +15°C° 0.1 mm 1 mps 741 mmHg 83%
21:00 +14°C° 0 mm 2 mps 742 mmHg 85%
22:00 +14°C° 0 mm 2 mps 742 mmHg 87%
23:00 +12°C° 0 mm 3 mps 742 mmHg 89%

Tomorrow, 15 July, Wednesday

Time Temperature Precipitation Wind Pressure Humidity
00:00 +12°C° 0 mm 3 mps 742 mmHg 91%
01:00 +12°C° 0 mm 3 mps 742 mmHg 93%
02:00 +11°C° 0 mm 3 mps 742 mmHg 95%
03:00 +11°C° 0 mm 3 mps 742 mmHg 95%
04:00 +11°C° 0 mm 4 mps 742 mmHg 95%
05:00 +11°C° 0 mm 4 mps 742 mmHg 95%
06:00 +13°C° 0 mm 4 mps 742 mmHg 89%
07:00 +14°C° 0 mm 4 mps 742 mmHg 84%
08:00 +16°C° 0 mm 5 mps 742 mmHg 79%
09:00 +17°C° 0 mm 5 mps 742 mmHg 74%
10:00 +19°C° 0 mm 5 mps 742 mmHg 69%
11:00 +21°C° 0 mm 5 mps 742 mmHg 63%
12:00 +21°C° 0 mm 5 mps 742 mmHg 61%
13:00 +22°C° 0 mm 5 mps 742 mmHg 59%
14:00 +22°C° 0 mm 5 mps 742 mmHg 56%
15:00 +22°C° 0 mm 5 mps 742 mmHg 58%
16:00 +22°C° 0 mm 4 mps 742 mmHg 60%
17:00 +22°C° 0 mm 4 mps 742 mmHg 62%
18:00 +20°C° 0 mm 3 mps 742 mmHg 68%
19:00 +18°C° 0 mm 3 mps 743 mmHg 74%
20:00 +17°C° 0 mm 2 mps 743 mmHg 80%
21:00 +16°C° 0 mm 2 mps 743 mmHg 82%
22:00 +15°C° 0 mm 2 mps 743 mmHg 85%
23:00 +15°C° 0 mm 2 mps 743 mmHg 88%

Day after tomorrow, 16 July, Thursday

Time Temperature Precipitation Wind Pressure Humidity
00:00 +14°C° 0 mm 2 mps 743 mmHg 88%
01:00 +14°C° 0 mm 2 mps 743 mmHg 89%
02:00 +13°C° 0 mm 2 mps 743 mmHg 90%
03:00 +13°C° 0 mm 2 mps 743 mmHg 90%
04:00 +13°C° 0 mm 2 mps 743 mmHg 91%
05:00 +13°C° 0 mm 1 mps 743 mmHg 91%
06:00 +15°C° 0 mm 1 mps 743 mmHg 84%
07:00 +18°C° 0 mm 1 mps 743 mmHg 78%
08:00 +20°C° 0 mm 1 mps 743 mmHg 71%
09:00 +22°C° 0 mm 1 mps 743 mmHg 66%
10:00 +23°C° 0 mm 1 mps 743 mmHg 61%
11:00 +24°C° 0 mm 1 mps 743 mmHg 56%
12:00 +25°C° 0 mm 1 mps 742 mmHg 54%
13:00 +25°C° 0 mm 1 mps 742 mmHg 52%
14:00 +26°C° 0 mm 1 mps 742 mmHg 49%
15:00 +26°C° 0 mm 1 mps 742 mmHg 51%
16:00 +25°C° 0 mm 1 mps 742 mmHg 53%
17:00 +25°C° 0 mm 1 mps 741 mmHg 55%
18:00 +24°C° 0 mm 1 mps 741 mmHg 60%
19:00 +22°C° 0 mm 1 mps 741 mmHg 65%
20:00 +20°C° 0 mm 1 mps 741 mmHg 71%
21:00 +20°C° 0 mm 1 mps 741 mmHg 73%
22:00 +19°C° 0 mm 1 mps 741 mmHg 76%
23:00 +18°C° 0 mm 1 mps 741 mmHg 78%

17 July, Friday

Time Temperature Precipitation Wind Pressure Humidity
00:00 +18°C° 0 mm 1 mps 741 mmHg 80%
01:00 +16°C° 0 mm 1 mps 741 mmHg 82%
02:00 +16°C° 0 mm 1 mps 741 mmHg 83%
03:00 +16°C° 0.1 mm 1 mps 741 mmHg 85%
04:00 +16°C° 0.1 mm 1 mps 741 mmHg 86%
05:00 +16°C° 0.1 mm 1 mps 741 mmHg 87%
06:00 +19°C° 0 mm 1 mps 741 mmHg 82%
07:00 +19°C° 0 mm 2 mps 742 mmHg 77%
08:00 +21°C° 0 mm 2 mps 742 mmHg 72%
09:00 +23°C° 0.1 mm 2 mps 742 mmHg 67%
10:00 +25°C° 0.1 mm 2 mps 742 mmHg 63%
11:00 +26°C° 0.1 mm 3 mps 742 mmHg 58%
12:00 +26°C° 0.8 mm 3 mps 742 mmHg 58%
13:00 +26°C° 0.8 mm 3 mps 742 mmHg 58%
14:00 +27°C° 0.8 mm 3 mps 742 mmHg 57%
15:00 +27°C° 0.4 mm 3 mps 742 mmHg 58%
16:00 +27°C° 0.4 mm 2 mps 742 mmHg 58%
17:00 +27°C° 0.4 mm 2 mps 742 mmHg 58%
18:00 +25°C° 0.3 mm 1 mps 742 mmHg 63%
19:00 +23°C° 0.3 mm 1 mps 742 mmHg 69%
20:00 +21°C° 0.3 mm 1 mps 742 mmHg 74%
21:00 +21°C° 0 mm 1 mps 742 mmHg 76%
22:00 +20°C° 0 mm 1 mps 742 mmHg 78%
23:00 +19°C° 0 mm 1 mps 742 mmHg 80%

18 July, Saturday

Time Temperature Precipitation Wind Pressure Humidity
00:00 +19°C° 0 mm 1 mps 743 mmHg 80%
01:00 +17°C° 0 mm 2 mps 743 mmHg 81%
02:00 +17°C° 0 mm 2 mps 743 mmHg 82%
03:00 +17°C° 0 mm 2 mps 743 mmHg 82%
04:00 +17°C° 0 mm 2 mps 743 mmHg 82%
05:00 +16°C° 0 mm 2 mps 743 mmHg 81%
06:00 +18°C° 0 mm 2 mps 743 mmHg 77%
07:00 +20°C° 0 mm 2 mps 744 mmHg 73%
08:00 +23°C° 0 mm 2 mps 744 mmHg 69%
09:00 +24°C° 0 mm 3 mps 744 mmHg 63%
10:00 +26°C° 0 mm 3 mps 744 mmHg 57%
11:00 +27°C° 0 mm 3 mps 744 mmHg 52%
12:00 +27°C° 0 mm 3 mps 744 mmHg 50%
13:00 +28°C° 0 mm 2 mps 744 mmHg 49%
14:00 +28°C° 0 mm 2 mps 744 mmHg 47%
15:00 +28°C° 0 mm 2 mps 744 mmHg 50%
16:00 +27°C° 0 mm 2 mps 744 mmHg 53%
17:00 +27°C° 0 mm 2 mps 744 mmHg 56%
18:00 +26°C° 0 mm 2 mps 744 mmHg 59%
19:00 +24°C° 0 mm 2 mps 744 mmHg 62%
20:00 +23°C° 0 mm 2 mps 744 mmHg 65%
21:00 +21°C° 0 mm 2 mps 744 mmHg 66%
22:00 +21°C° 0 mm 2 mps 744 mmHg 68%
23:00 +20°C° 0 mm 2 mps 744 mmHg 69%

19 July, Sunday

Time Temperature Precipitation Wind Pressure Humidity
00:00 +19°C° 0 mm 2 mps 744 mmHg 69%
01:00 +20°C° 0 mm 1 mps 744 mmHg 69%
02:00 +19°C° 0 mm 1 mps 744 mmHg 69%
03:00 +19°C° 0 mm 1 mps 744 mmHg 71%
04:00 +18°C° 0 mm 2 mps 744 mmHg 72%
05:00 +18°C° 0 mm 2 mps 744 mmHg 73%
06:00 +19°C° 0 mm 2 mps 743 mmHg 72%
07:00 +20°C° 0 mm 2 mps 743 mmHg 72%
08:00 +21°C° 0 mm 3 mps 743 mmHg 71%
09:00 +22°C° 0 mm 3 mps 743 mmHg 68%
10:00 +24°C° 0 mm 3 mps 743 mmHg 65%
11:00 +26°C° 0 mm 3 mps 743 mmHg 63%
12:00 +26°C° 0 mm 3 mps 743 mmHg 60%
13:00 +27°C° 0 mm 3 mps 742 mmHg 57%
14:00 +28°C° 0 mm 3 mps 742 mmHg 54%
15:00 +28°C° 0 mm 3 mps 742 mmHg 54%
16:00 +28°C° 0 mm 3 mps 741 mmHg 55%
17:00 +28°C° 0 mm 3 mps 741 mmHg 56%
18:00 +26°C° 0.1 mm 3 mps 741 mmHg 63%
19:00 +24°C° 0.1 mm 3 mps 741 mmHg 69%
20:00 +21°C° 0.1 mm 3 mps 741 mmHg 76%
21:00 +21°C° 0 mm 3 mps 740 mmHg 78%
22:00 +20°C° 0 mm 3 mps 740 mmHg 79%
23:00 +19°C° 0 mm 3 mps 740 mmHg 81%
Show more